Location: Harbor View
(36.2448°N, 86.5797°W)
Time: 07:13:28
(UTC+00:00)

COSMO-SKYMED 1 - Pass Details

Date: 01 March 2021
Orbit: 621 x 623 km, 97.9° (Epoch: 13 April)

Event Time Altitude Azimuth Distance (km) Brightness Sun altitude
Rises 11:49:08 0° 194° (SSW) 2,888 5.9 -6.3°
Reaches altitude 10° 11:51:37 10° 208° (SSW) 1,987 4.9 -5.8°
Maximum altitude 11:55:12 25° 264° (W) 1,255 3.6 -5.0°
Drops below altitude 10° 11:58:49 10° 320° (NW) 1,999 4.8 -4.3°
Sets 12:01:20 0° 334° (NNW) 2,910 5.7 -3.8°
